Ogallala, NE

6:54 PM MDT on April 25, 2017 (GMT -0600)
Searle

Weather History for KOGA - August, 2014

Change the Weather History Date:

Tuesday, August 19, 2014

  Actual Average Record
Temperature  
Mean Temperature 72 °F -  
Max Temperature 90 °F 86 °F 102 °F (1948)
Min Temperature 54 °F 58 °F 42 °F (1967)
Cooling Degree Days 7    
Growing Degree Days 22 (Base 50)    
Moisture  
Dew Point 57 °F    
Average Humidity 66    
Maximum Humidity 95    
Minimum Humidity 31    
Precipitation  
Precipitation 0.17 in - - ()
Sea Level Pressure  
Sea Level Pressure 29.87 in    
Wind  
Wind Speed 4 mph (SE)    
Max Wind Speed 25 mph    
Max Gust Speed 46 mph    
Visibility 10 miles    
Events Rain , Thunderstorm    
Averages and records for this station are not official NWS values.
T = Trace of Precipitation, MM = Missing Value Source: NWS Daily Summary

Daily Weather History Graph

Daily Weather History Graph

Search for Another Location

Airport or City:

Trip Planner

Search our weather history database for the weather conditions in past years. The results will help you decide how hot, cold, wet, or windy it might be!

Date:

Astronomy

Aug. 19, 2014 Rise Set
Actual Time 6:00 AM MDT 7:39 PM MDT
Civil Twilight 5:31 AM MDT 8:09 PM MDT
Nautical Twilight 4:56 AM MDT 8:44 PM MDT
Astronomical Twilight 4:18 AM MDT 9:21 PM MDT
Moon 12:53 AM MDT (8/19) 3:39 PM MDT (8/19)
Length of Visible Light 14h 37m
Length of Day
13h 39m
Waning Crescent, 28% of the Moon is Illuminated
Aug 19
Waning Crescent
Aug 25
New
Sep 2
First Quarter
Sep 8
Full
Sep 15
Last Quarter

Hourly Weather History & Observations

Time (MDT) Temp. Heat Index Dew Point Humidity Pressure Visibility Wind Dir Wind Speed Gust Speed Precip Events Conditions
12:15 AM 57.0 °F - 53.8 °F 89% 29.94 in 10.0 mi Calm Calm - N/A   Clear
12:35 AM 57.2 °F - 54.9 °F 92% 29.95 in 10.0 mi West 8.1 mph - N/A   Clear
12:55 AM 55.4 °F - 53.6 °F 94% 29.95 in 10.0 mi West 3.5 mph - N/A   Clear
1:15 AM 55.9 °F - 54.1 °F 94% 29.94 in 10.0 mi Calm Calm - N/A   Clear
1:35 AM 55.9 °F - 54.0 °F 93% 29.94 in 10.0 mi Calm Calm - N/A   Clear
1:55 AM 56.1 °F - 53.6 °F 91% 29.94 in 10.0 mi Calm Calm - N/A   Clear
2:15 AM 56.1 °F - 54.0 °F 92% 29.94 in 10.0 mi WNW 3.5 mph - N/A   Clear
2:35 AM 57.9 °F - 53.8 °F 86% 29.93 in 10.0 mi Calm Calm - N/A   Clear
2:55 AM 57.2 °F - 54.5 °F 91% 29.93 in 10.0 mi Calm Calm - N/A   Clear
3:15 AM 57.7 °F - 54.9 °F 90% 29.93 in 10.0 mi Calm Calm - N/A   Clear
3:35 AM 57.7 °F - 55.4 °F 92% 29.93 in 10.0 mi SW 3.5 mph - N/A   Clear
3:55 AM 57.2 °F - 55.2 °F 93% 29.93 in 10.0 mi West 3.5 mph - N/A   Clear
4:15 AM 56.5 °F - 54.7 °F 94% 29.93 in 10.0 mi Calm Calm - N/A   Clear
4:35 AM 56.7 °F - 55.0 °F 94% 29.93 in 10.0 mi West 3.5 mph - N/A   Clear
4:55 AM 55.8 °F - 54.1 °F 94% 29.92 in 10.0 mi Calm Calm - N/A   Clear
5:15 AM 54.7 °F - 52.9 °F 94% 29.93 in 10.0 mi Calm Calm - N/A   Clear
5:35 AM 54.5 °F - 52.5 °F 93% 29.93 in 10.0 mi Calm Calm - N/A   Clear
5:55 AM 54.3 °F - 52.5 °F 94% 29.93 in 10.0 mi Calm Calm - N/A   Clear
6:15 AM 54.7 °F - 52.0 °F 91% 29.93 in 10.0 mi Calm Calm - N/A   Clear
6:35 AM 54.5 °F - 52.9 °F 94% 29.93 in 10.0 mi Calm Calm - N/A   Clear
6:55 AM 55.9 °F - 53.6 °F 92% 29.93 in 10.0 mi Calm Calm - N/A   Clear
7:15 AM 58.6 °F - 55.4 °F 89% 29.93 in 10.0 mi Calm Calm - N/A   Clear
7:35 AM 61.7 °F - 56.7 °F 84% 29.93 in 10.0 mi Calm Calm - N/A   Clear
7:55 AM 64.4 °F - 57.4 °F 78% 29.93 in 10.0 mi Calm Calm - N/A   Clear
8:15 AM 66.9 °F - 58.3 °F 74% 29.92 in 10.0 mi East 3.5 mph - N/A   Clear
8:35 AM 69.6 °F - 58.8 °F 68% 29.91 in 10.0 mi East 4.6 mph - N/A   Clear
8:55 AM 71.8 °F - 59.2 °F 64% 29.91 in 10.0 mi East 4.6 mph - N/A   Clear
9:15 AM 73.9 °F - 58.5 °F 58% 29.90 in 10.0 mi East 6.9 mph - N/A   Clear
9:35 AM 75.9 °F - 56.1 °F 50% 29.90 in 10.0 mi East 8.1 mph - N/A   Clear
9:55 AM 77.5 °F - 56.8 °F 49% 29.90 in 10.0 mi East 5.8 mph - N/A   Clear
10:15 AM 78.8 °F - 58.8 °F 50% 29.89 in 10.0 mi East 5.8 mph - N/A   Clear
10:35 AM 79.2 °F - 59.4 °F 51% 29.88 in 10.0 mi ESE 3.5 mph - N/A   Clear
10:55 AM 80.1 °F 80.9 °F 59.7 °F 50% 29.88 in 10.0 mi ESE 5.8 mph - N/A   Clear
11:15 AM 81.5 °F 81.8 °F 59.2 °F 47% 29.88 in 10.0 mi ESE 5.8 mph - N/A   Clear
11:35 AM 82.6 °F 82.3 °F 58.3 °F 43% 29.87 in 10.0 mi East 8.1 mph - N/A   Clear
11:55 AM 84.2 °F 83.5 °F 57.2 °F 40% 29.87 in 10.0 mi East 6.9 mph - N/A   Clear
12:15 PM 85.1 °F 84.3 °F 57.4 °F 39% 29.87 in 10.0 mi ESE 8.1 mph - N/A   Clear
12:35 PM 86.5 °F 85.6 °F 58.1 °F 38% 29.86 in 10.0 mi SE 8.1 mph - N/A   Clear
12:55 PM 86.2 °F 85.4 °F 58.6 °F 39% 29.85 in 10.0 mi SE 9.2 mph - N/A   Clear
1:15 PM 88.0 °F 86.7 °F 57.4 °F 35% 29.84 in 10.0 mi SE 8.1 mph - N/A   Clear
1:35 PM 88.2 °F 86.7 °F 56.8 °F 34% 29.84 in 10.0 mi ESE 10.4 mph 16.1 mph N/A   Clear
1:55 PM 88.7 °F 87.3 °F 56.8 °F 34% 29.84 in 10.0 mi ESE 11.5 mph - N/A   Clear
2:15 PM 88.7 °F 87.3 °F 57.0 °F 34% 29.83 in 10.0 mi SSE 10.4 mph - N/A   Clear
2:35 PM 89.1 °F 87.3 °F 55.8 °F 32% 29.82 in 10.0 mi SSE 11.5 mph - N/A   Scattered Clouds
3:15 PM 89.8 °F 87.9 °F 55.0 °F 31% 29.81 in 10.0 mi SSE 11.5 mph - N/A   Clear
3:35 PM 90.1 °F 88.3 °F 55.8 °F 31% 29.79 in 10.0 mi SSE 12.7 mph 17.3 mph N/A   Clear
3:55 PM 90.7 °F 89.2 °F 56.7 °F 32% 29.79 in 10.0 mi South 11.5 mph - N/A   Clear
4:15 PM 90.7 °F 89.0 °F 56.1 °F 31% 29.78 in 10.0 mi SE 11.5 mph 16.1 mph N/A   Clear
4:35 PM 89.2 °F 87.7 °F 56.5 °F 33% 29.78 in 10.0 mi SSE 11.5 mph 16.1 mph N/A   Clear
4:55 PM 88.2 °F 86.7 °F 56.1 °F 34% 29.78 in 10.0 mi SE 10.4 mph - N/A   Clear
5:15 PM 87.8 °F 86.3 °F 56.5 °F 34% 29.78 in 10.0 mi ESE 9.2 mph - N/A   Clear
5:35 PM 86.9 °F 85.5 °F 56.5 °F 35% 29.77 in 10.0 mi SE 10.4 mph 17.3 mph N/A   Clear
5:55 PM 86.7 °F 85.6 °F 57.2 °F 37% 29.77 in 10.0 mi SE 10.4 mph - N/A   Clear
6:15 PM 85.1 °F 84.6 °F 59.0 °F 41% 29.77 in 10.0 mi ESE 9.2 mph - N/A   Clear
6:35 PM 82.9 °F 83.2 °F 60.1 °F 46% 29.77 in 10.0 mi ESE 5.8 mph - N/A   Clear
6:55 PM 81.7 °F 82.2 °F 60.1 °F 48% 29.77 in 10.0 mi ESE 6.9 mph - N/A   Clear
7:15 PM 80.1 °F 81.1 °F 60.8 °F 52% 29.77 in 10.0 mi East 4.6 mph - N/A   Clear
7:35 PM 79.2 °F - 60.1 °F 52% 29.77 in 10.0 mi East 5.8 mph - N/A   Clear
7:55 PM 77.7 °F - 60.8 °F 56% 29.77 in 10.0 mi East 6.9 mph - N/A Thunderstorm Thunderstorm
8:15 PM 77.0 °F - 61.2 °F 58% 29.78 in 10.0 mi East 8.1 mph - N/A   Clear
8:35 PM 77.9 °F - 60.8 °F 56% 29.79 in 10.0 mi East 5.8 mph - N/A   Clear
8:55 PM 77.0 °F - 61.0 °F 58% 29.81 in 10.0 mi SSW 5.8 mph - N/A Thunderstorm Clear
9:15 PM 67.6 °F - 60.8 °F 79% 29.88 in 1.8 mi West 25.3 mph 46.0 mph N/A Rain , Thunderstorm Light Thunderstorms and Rain
9:35 PM 64.4 °F - 61.7 °F 91% 29.90 in 4.0 mi West 18.4 mph 25.3 mph 0.07 in Rain , Thunderstorm Heavy Thunderstorms and Rain
9:55 PM 64.0 °F - 61.7 °F 92% 29.89 in 7.0 mi West 13.8 mph 18.4 mph 0.09 in Rain Light Rain
10:15 PM 63.9 °F - 62.4 °F 95% 29.86 in 7.0 mi WNW 8.1 mph - 0.05 in Rain Rain
10:35 PM 64.4 °F - 62.1 °F 92% 29.84 in 10.0 mi Calm Calm - 0.08 in Rain Light Rain
10:55 PM 64.4 °F - 62.2 °F 93% 29.80 in 10.0 mi North 10.4 mph - 0.08 in Rain Light Rain
11:35 PM 65.3 °F - 62.2 °F 90% 29.79 in 10.0 mi East 5.8 mph - N/A   Scattered Clouds
11:55 PM 65.7 °F - 63.1 °F 92% 29.78 in 10.0 mi ESE 5.8 mph - N/A   Clear